Location: Eschentzwiller
(47.7125°N, 7.3981°E)
Time: 01:23:04
(UTC+00:00)

BREEZE-M R/B - Pass Details

Date: 27 October 2020
Orbit: 309 x 4522 km, 49.7° (Epoch: 26 November)

Event Time Altitude Azimuth Distance (km) Brightness Sun altitude
Rises 17:53:05 0° 281° (W) 2,475 7.8 -16.2°
Reaches altitude 10° 17:54:41 10° 283° (WNW) 1,800 6.7 -16.4°
Maximum altitude 17:58:33 75° 9° (N) 827 3.6 -17.1°
Enters shadow 18:02:28 27° 91° (E) 2,018 5.0 -17.7°
